Home > Weather > Saarlouis > Past weeks

Flag for Germany Past Weather in Saarlouis, Saarland, Germany — Yesterday and Last 2 Weeks

Now
77 °F

Passing clouds.


Feels Like: 79 °F
Forecast: 61 / 93 °F
Wind: 7 mph from East

Location: Saarbruecken / Ensheim

Current Time: Aug 25, 2016 at 12:02:10 PM

Latest Report: Aug 25, 2016 at 11:20 AM


Visibility: N/A

Pressure: 30.09 "Hg

Humidity: 54%

Dew Point: 59 °F

Location of SaarlouisLocation

Past Weather in Saarlouis — Graph

°F

Saarlouis Temperature Yesterday

Maximum temperature yesterday: 86 °F (at 2:50 PM)
Minimum temperature yesterday: 59 °F (at 6:20 AM)
Average temperature yesterday: 73 °F

High & Low Weather Summary for the Past Weeks

 TemperatureHumidityPressure
High86 °F (Aug 24, 2:50 PM)100% (Aug 11, 12:20 AM)30.39 "Hg (Aug 11, 12:20 AM)
Low39 °F (Aug 11, 6:50 AM)31% (Aug 24, 2:50 PM)29.83 "Hg (Aug 18, 4:20 AM)
Average65 °F74%30.13 "Hg
* Reported Aug 10 10:20 AM — Aug 25 10:50 AM, Saarlouis, Weather by CustomWeather, © 2016

Note: Actual official high and low records may vary slightly from our data, if they occured in-between our weather recording intervals... More about our weather records

Advertising

Saarlouis Weather History for the Previous 24 Hours

Scroll right to see more
 ConditionsComfort  
Time TempWeatherWind HumidityBarometerVisibility
10:50 AM
Thu, Aug 25
75 °FPassing clouds.6 mph57%30.09 "HgN/A
10:20 AM73 °FSunny.7 mph61%30.09 "Hg10 mi
9:50 AM72 °FPassing clouds.8 mph65%30.09 "HgN/A
9:20 AM70 °FSunny.9 mph69%30.09 "Hg10 mi
8:50 AM68 °FSunny.9 mph73%30.09 "Hg10 mi
8:20 AM68 °FSunny.10 mph73%30.07 "Hg10 mi
7:50 AM66 °FSunny.8 mph73%30.09 "Hg10 mi
7:20 AM64 °FClear.9 mph78%30.09 "Hg10 mi
6:50 AM63 °FClear.9 mph83%30.09 "Hg10 mi
6:20 AM63 °FClear.9 mph83%30.09 "Hg10 mi
5:50 AM63 °FClear.10 mph83%30.09 "Hg10 mi
5:20 AM64 °FPassing clouds.6 mph78%30.09 "HgN/A
4:50 AM64 °FClear.8 mph78%30.09 "Hg10 mi
4:20 AM66 °FClear.7 mph73%30.09 "Hg10 mi
3:50 AM66 °FClear.8 mph73%30.09 "Hg10 mi
3:20 AM66 °FPassing clouds.8 mph73%30.09 "HgN/A
2:50 AM68 °FClear.7 mph69%30.09 "Hg10 mi
2:20 AM66 °FClear.8 mph73%30.09 "Hg10 mi
1:50 AM68 °FClear.8 mph73%30.12 "Hg10 mi
1:20 AM68 °FClear.6 mph69%30.12 "Hg10 mi
12:50 AM72 °FClear.9 mph65%30.12 "Hg10 mi
12:20 AM68 °FClear.8 mph73%30.12 "Hg10 mi
11:50 PM
Wed, Aug 24
68 °FClear.8 mph73%30.12 "Hg10 mi
11:20 PM70 °FClear.8 mph69%30.12 "Hg10 mi
10:50 PM70 °FClear.9 mph69%30.12 "Hg10 mi
10:20 PM72 °FClear.8 mph65%30.12 "Hg10 mi
9:50 PM73 °FClear.8 mph65%30.12 "Hg10 mi
9:20 PM73 °FSunny.9 mph65%30.12 "Hg10 mi
8:50 PM73 °FSunny.9 mph65%30.12 "Hg10 mi
8:20 PM75 °FSunny.8 mph61%30.12 "Hg10 mi
7:50 PM81 °FSunny.7 mph51%30.12 "Hg10 mi
7:20 PM82 °FSunny.7 mph45%30.12 "Hg10 mi
6:50 PM84 °FSunny.10 mph43%30.12 "Hg10 mi
6:20 PM84 °FSunny.9 mph43%30.12 "Hg10 mi
5:50 PM86 °FPassing clouds.8 mph38%30.15 "HgN/A
5:20 PM86 °FSunny.9 mph35%30.15 "Hg10 mi
4:50 PM86 °FPassing clouds.9 mph35%30.15 "HgN/A
4:20 PM86 °FPassing clouds.10 mph38%30.15 "HgN/A
3:50 PM86 °FPassing clouds.9 mph35%30.15 "HgN/A
3:20 PM86 °FSunny.10 mph33%30.15 "Hg10 mi
2:50 PM86 °FPassing clouds.8 mph31%30.18 "HgN/A
2:20 PM84 °FPassing clouds.8 mph37%30.18 "HgN/A
1:50 PM84 °FPassing clouds.8 mph37%30.18 "HgN/A
1:20 PM82 °FPassing clouds.8 mph40%30.18 "HgN/A
12:50 PM81 °FPassing clouds.10 mph45%30.21 "HgN/A
12:20 PM79 °FSunny.10 mph48%30.21 "Hg10 mi
Weather by CustomWeather, © 2016

See weather overviewHow to use our weather pages